Location: Quaker Farms
(41.4276°N, 73.1557°W)
Time: 23:37:10
(UTC+00:00)

Vanguard 1 - Pass Details

Date: 22 June 2021
Orbit: 651 x 3832 km, 34.2° (Epoch: 26 July)

Event Time Altitude Azimuth Distance (km) Brightness Sun altitude
Rises 02:46:53 0° 252° (WSW) 7,909 14.8 -18.7°
Reaches altitude 10° 02:52:17 10° 250° (WSW) 6,934 14.5 -19.2°
Maximum altitude 03:15:12 68° 174° (S) 3,392 12.4 -21.2°
Drops below altitude 10° 03:30:07 10° 96° (E) 4,791 13.3 -22.2°
Sets 03:33:05 0° 94° (E) 5,458 13.6 -22.4°
